• în România
  • Lista ţărilor
  • Pe 7 zile
  • Temperatura apei
  • Hartă satelitară
  • Meteo pe hartă
  • Widget-uri
  • user-avatar
    Intrare

    Meteo pe oră la Kitzbuhel

    Astăzi, 18 Noiembrie, Sâmbătă

    Timp Temperatura Precipitaţii Vânt Presiune Umiditate
    00:00 -2°C° 0 mm 1 m/s 678 mmHg 94%
    01:00 -2°C° 0 mm 1 m/s 678 mmHg 94%
    02:00 -2°C° 0 mm 1 m/s 678 mmHg 94%
    03:00 -2°C° 0 mm 1 m/s 678 mmHg 93%
    04:00 -2°C° 0 mm 1 m/s 678 mmHg 92%
    05:00 -2°C° 0 mm 1 m/s 678 mmHg 92%
    06:00 -2°C° 0 mm 1 m/s 678 mmHg 92%
    07:00 0°C° 0 mm 1 m/s 678 mmHg 93%
    08:00 +1°C° 0 mm 1 m/s 678 mmHg 90%
    09:00 +2°C° 0 mm 1 m/s 678 mmHg 88%
    10:00 +3°C° 0 mm 1 m/s 678 mmHg 86%
    11:00 +4°C° 0 mm 1 m/s 678 mmHg 85%
    12:00 +4°C° 0 mm 1 m/s 677 mmHg 84%
    13:00 +3°C° 0 mm 2 m/s 677 mmHg 84%
    14:00 +3°C° 0 mm 1 m/s 677 mmHg 87%
    15:00 +3°C° 0 mm 1 m/s 676 mmHg 90%
    16:00 +2°C° 0 mm 1 m/s 676 mmHg 92%
    17:00 +1°C° 0 mm 1 m/s 676 mmHg 92%
    18:00 0°C° 0 mm 1 m/s 676 mmHg 93%
    19:00 -3°C° 0 mm 2 m/s 676 mmHg 93%
    20:00 -3°C° 0 mm 2 m/s 676 mmHg 91%
    21:00 -4°C° 0 mm 2 m/s 676 mmHg 90%
    22:00 -4°C° 0 mm 2 m/s 676 mmHg 89%
    23:00 -4°C° 0 mm 2 m/s 676 mmHg 88%

    Mâine, 19 Noiembrie, Duminică

    Timp Temperatura Precipitaţii Vânt Presiune Umiditate
    00:00 -4°C° 0 mm 2 m/s 675 mmHg 87%
    01:00 -4°C° 0 mm 2 m/s 675 mmHg 86%
    02:00 -4°C° 0,1 mm 2 m/s 675 mmHg 83%
    03:00 -1°C° 0,1 mm 1 m/s 674 mmHg 80%
    04:00 -1°C° 0,1 mm 1 m/s 673 mmHg 77%
    05:00 -1°C° 0,9 mm 1 m/s 673 mmHg 82%
    06:00 -3°C° 0,9 mm 2 m/s 673 mmHg 88%
    07:00 -2°C° 0,9 mm 2 m/s 673 mmHg 93%
    08:00 -2°C° 0,8 mm 2 m/s 673 mmHg 93%
    09:00 -1°C° 0,8 mm 2 m/s 673 mmHg 93%
    10:00 0°C° 0,8 mm 3 m/s 674 mmHg 93%
    11:00 0°C° 1 mm 3 m/s 674 mmHg 92%
    12:00 0°C° 1 mm 3 m/s 673 mmHg 92%
    13:00 -1°C° 1 mm 3 m/s 673 mmHg 92%
    14:00 -1°C° 0,8 mm 3 m/s 674 mmHg 93%
    15:00 -1°C° 0,8 mm 3 m/s 674 mmHg 94%
    16:00 -2°C° 0,8 mm 3 m/s 674 mmHg 94%
    17:00 -2°C° 0,5 mm 3 m/s 675 mmHg 95%
    18:00 -2°C° 0,5 mm 3 m/s 675 mmHg 95%
    19:00 -4°C° 0,5 mm 3 m/s 676 mmHg 95%
    20:00 -4°C° 0,5 mm 3 m/s 676 mmHg 95%
    21:00 -4°C° 0,5 mm 3 m/s 677 mmHg 95%
    22:00 -4°C° 0,5 mm 3 m/s 677 mmHg 95%
    23:00 -4°C° 0,4 mm 3 m/s 677 mmHg 95%

    Poimâine, 20 Noiembrie, Luni

    Timp Temperatura Precipitaţii Vânt Presiune Umiditate
    00:00 -4°C° 0,4 mm 3 m/s 677 mmHg 95%
    01:00 -4°C° 0,4 mm 3 m/s 678 mmHg 95%
    02:00 -5°C° 0,2 mm 3 m/s 678 mmHg 94%
    03:00 -5°C° 0,2 mm 3 m/s 678 mmHg 94%
    04:00 -5°C° 0,2 mm 3 m/s 678 mmHg 94%
    05:00 -5°C° 0,1 mm 2 m/s 678 mmHg 93%
    06:00 -5°C° 0,1 mm 2 m/s 678 mmHg 92%
    07:00 -6°C° 0,1 mm 2 m/s 678 mmHg 91%
    08:00 -5°C° 0 mm 2 m/s 678 mmHg 89%
    09:00 -3°C° 0 mm 2 m/s 679 mmHg 87%
    10:00 -2°C° 0 mm 2 m/s 679 mmHg 85%
    11:00 -1°C° 0 mm 2 m/s 679 mmHg 84%
    12:00 +2°C° 0 mm 1 m/s 679 mmHg 83%
    13:00 +3°C° 0 mm 1 m/s 678 mmHg 82%
    14:00 +3°C° 0 mm 1 m/s 678 mmHg 84%
    15:00 +2°C° 0 mm 1 m/s 678 mmHg 86%
    16:00 +2°C° 0 mm 1 m/s 677 mmHg 88%
    17:00 +2°C° 0,1 mm 1 m/s 677 mmHg 88%
    18:00 +1°C° 0,1 mm 2 m/s 677 mmHg 88%
    19:00 -1°C° 0,1 mm 2 m/s 677 mmHg 88%
    20:00 +1°C° 0 mm 2 m/s 677 mmHg 88%
    21:00 +1°C° 0 mm 2 m/s 677 mmHg 88%
    22:00 +1°C° 0 mm 2 m/s 677 mmHg 87%
    23:00 +1°C° 0 mm 2 m/s 677 mmHg 86%

    21 Noiembrie, Marţi

    Timp Temperatura Precipitaţii Vânt Presiune Umiditate
    00:00 +1°C° 0 mm 2 m/s 677 mmHg 85%
    01:00 +1°C° 0 mm 2 m/s 676 mmHg 83%
    02:00 +2°C° 0,3 mm 2 m/s 676 mmHg 85%
    03:00 +2°C° 0,3 mm 2 m/s 676 mmHg 87%
    04:00 +2°C° 0,3 mm 2 m/s 676 mmHg 88%
    05:00 +2°C° 0,3 mm 2 m/s 676 mmHg 89%
    06:00 +1°C° 0,3 mm 3 m/s 677 mmHg 90%
    07:00 +2°C° 0,3 mm 3 m/s 677 mmHg 92%
    08:00 +3°C° 0,2 mm 2 m/s 677 mmHg 92%
    09:00 +4°C° 0,2 mm 2 m/s 677 mmHg 92%
    10:00 +4°C° 0,2 mm 2 m/s 677 mmHg 92%
    11:00 +5°C° 0,1 mm 2 m/s 677 mmHg 93%
    12:00 +5°C° 0,1 mm 2 m/s 677 mmHg 94%
    13:00 +6°C° 0,1 mm 2 m/s 677 mmHg 95%
    14:00 +5°C° 0,1 mm 2 m/s 677 mmHg 94%
    15:00 +5°C° 0,1 mm 2 m/s 677 mmHg 93%
    16:00 +5°C° 0,1 mm 2 m/s 677 mmHg 92%
    17:00 +4°C° 0,1 mm 2 m/s 677 mmHg 91%
    18:00 +3°C° 0,1 mm 2 m/s 677 mmHg 90%
    19:00 +3°C° 0,1 mm 2 m/s 677 mmHg 89%
    20:00 +3°C° 0 mm 2 m/s 677 mmHg 88%
    21:00 +2°C° 0 mm 2 m/s 677 mmHg 86%
    22:00 +2°C° 0 mm 2 m/s 678 mmHg 85%
    23:00 +2°C° 0 mm 2 m/s 677 mmHg 84%

    22 Noiembrie, Miercuri

    Timp Temperatura Precipitaţii Vânt Presiune Umiditate
    00:00 +2°C° 0 mm 2 m/s 677 mmHg 83%
    01:00 +1°C° 0 mm 2 m/s 677 mmHg 82%
    02:00 +1°C° 0 mm 2 m/s 677 mmHg 81%
    03:00 +1°C° 0 mm 2 m/s 677 mmHg 80%
    04:00 +1°C° 0 mm 2 m/s 677 mmHg 80%
    05:00 +1°C° 0 mm 2 m/s 677 mmHg 79%
    06:00 +1°C° 0 mm 2 m/s 677 mmHg 79%
    07:00 +1°C° 0 mm 2 m/s 677 mmHg 78%
    08:00 +4°C° 0 mm 1 m/s 677 mmHg 80%
    09:00 +5°C° 0 mm 1 m/s 677 mmHg 82%
    10:00 +7°C° 0 mm 1 m/s 678 mmHg 84%
    11:00 +7°C° 0 mm 1 m/s 677 mmHg 86%
    12:00 +8°C° 0 mm 1 m/s 677 mmHg 88%
    13:00 +9°C° 0 mm 1 m/s 677 mmHg 90%
    14:00 +8°C° 0 mm 1 m/s 677 mmHg 88%
    15:00 +7°C° 0 mm 1 m/s 677 mmHg 85%
    16:00 +6°C° 0 mm 1 m/s 677 mmHg 83%
    17:00 +5°C° 0 mm 1 m/s 677 mmHg 81%
    18:00 +4°C° 0 mm 1 m/s 677 mmHg 80%
    19:00 +2°C° 0 mm 2 m/s 677 mmHg 78%
    20:00 +2°C° 0 mm 2 m/s 677 mmHg 77%
    21:00 +2°C° 0 mm 2 m/s 677 mmHg 76%
    22:00 +2°C° 0 mm 2 m/s 677 mmHg 76%
    23:00 +2°C° 0 mm 2 m/s 677 mmHg 75%

    23 Noiembrie, Joi

    Timp Temperatura Precipitaţii Vânt Presiune Umiditate
    00:00 +2°C° 0 mm 2 m/s 677 mmHg 75%
    01:00 +1°C° 0 mm 2 m/s 677 mmHg 75%
    02:00 +1°C° 0 mm 2 m/s 677 mmHg 75%
    03:00 +1°C° 0 mm 2 m/s 677 mmHg 75%
    04:00 +1°C° 0 mm 2 m/s 676 mmHg 75%
    05:00 +1°C° 0 mm 2 m/s 677 mmHg 75%
    06:00 +1°C° 0 mm 2 m/s 677 mmHg 75%
    07:00 +1°C° 0 mm 2 m/s 677 mmHg 74%
    08:00 +3°C° 0 mm 2 m/s 678 mmHg 76%
    09:00 +4°C° 0 mm 2 m/s 678 mmHg 77%
    10:00 +7°C° 0 mm 1 m/s 679 mmHg 78%
    11:00 +8°C° 0 mm 1 m/s 679 mmHg 81%
    12:00 +9°C° 0 mm 1 m/s 679 mmHg 84%
    13:00 +10°C° 0 mm 1 m/s 679 mmHg 86%
    14:00 +8°C° 0 mm 1 m/s 679 mmHg 84%
    15:00 +7°C° 0 mm 1 m/s 679 mmHg 82%
    16:00 +6°C° 0 mm 1 m/s 679 mmHg 79%
    17:00 +5°C° 0 mm 1 m/s 679 mmHg 78%
    18:00 +4°C° 0 mm 1 m/s 679 mmHg 76%
    19:00 +2°C° 0 mm 2 m/s 680 mmHg 75%
    20:00 +2°C° 0 mm 2 m/s 680 mmHg 73%
    21:00 +2°C° 0 mm 2 m/s 680 mmHg 71%
    22:00 +2°C° 0 mm 2 m/s 680 mmHg 70%
    23:00 +1°C° 0 mm 2 m/s 680 mmHg 69%
    Arată mai mult